Retour au catalogue

SL-8 DEB

ActifLEO
NORAD 21155·DEBRIS·🇷🇺 Russia

Lancé Feb 12, 1991 depuis Plesetsk Cosmodrome

Loading…

Prochains Passages (prochaines 24 heures)

TLE

FraisSource: Space-Track

Époque: Sep 14, 2026, 05:26 UTC

1 21155U 91009S   26257.22699030  .00000013  00000-0  24069-3 0  9994
2 21155  73.9271 341.8596 0144428 277.8847 108.7320 12.30740513598769

Suivez SL-8 DEB en temps réel avec AllMySat

Download on the App Store